Weather History for KBED - March, 2014

Change the Weather History Date:

Monday, March 10, 2014

  Actual Average Record
Temperature  
Mean Temperature 32 °F -  
Max Temperature 42 °F 44 °F 69 °F (1977)
Min Temperature 26 °F 23 °F 0 °F (1984)
Degree Days  
Heating Degree Days 32    
Moisture  
Dew Point 22 °F    
Average Humidity 68    
Maximum Humidity 92    
Minimum Humidity 47    
Precipitation  
Precipitation 0.00 in - - ()
Sea Level Pressure  
Sea Level Pressure 29.81 in    
Wind  
Wind Speed 5 mph (SSW)    
Max Wind Speed 10 mph    
Max Gust Speed -    
Visibility 8 miles    
Events Snow    
Averages and records for this station are not official NWS values.
T = Trace of Precipitation, MM = Missing Value Source: NWS Daily Summary

Daily Weather History Graph

Daily Weather History Graph

Search for Another Location

Airport or City:

Trip Planner

Search our weather history database for the weather conditions in past years. The results will help you decide how hot, cold, wet, or windy it might be!

Date:

Astronomy

Mar. 10, 2014 Rise Set
Actual Time 7:05 AM EDT 6:45 PM EDT
Civil Twilight 6:37 AM EDT 7:13 PM EDT
Nautical Twilight 6:05 AM EDT 7:46 PM EDT
Astronomical Twilight 5:32 AM EDT 8:19 PM EDT
Moon 1:21 PM EDT (3/10) 3:20 AM EDT (3/10)
Length of Visible Light 12h 36m
Length of Day
11h 40m
Waxing Gibbous, 70% of the Moon is Illuminated
Mar 10
Waxing Gibbous
Mar 16
Full
Mar 23
Last Quarter
Mar 30
New
Apr 7
First Quarter

Hourly Weather History & Observations

Time (EDT) Temp. Windchill Dew Point Humidity Pressure Visibility Wind Dir Wind Speed Gust Speed Precip Events Conditions
12:56 AM 28.9 °F 23.9 °F 10.9 °F 47% 29.91 in 10.0 mi SW 4.6 mph - N/A   Overcast
1:56 AM 28.9 °F 25.2 °F 12.0 °F 49% 29.91 in 10.0 mi SSW 3.5 mph - N/A   Overcast
2:56 AM 28.9 °F 25.2 °F 10.9 °F 47% 29.90 in 10.0 mi WSW 3.5 mph - N/A   Overcast
3:56 AM 28.0 °F - 15.1 °F 58% 29.88 in 10.0 mi Calm Calm - N/A   Overcast
4:56 AM 28.9 °F 19.8 °F 19.0 °F 67% 29.88 in 8.0 mi WSW 10.4 mph - 0.00 in Snow Light Snow
5:32 AM 27.0 °F 19.5 °F 21.9 °F 81% 29.82 in 2.5 mi SW 6.9 mph - 0.00 in Snow Light Snow
5:42 AM 27.0 °F 19.5 °F 21.9 °F 81% 29.82 in 3.0 mi SW 6.9 mph - 0.00 in Snow Light Snow
5:56 AM 27.0 °F 21.6 °F 23.0 °F 85% 29.87 in 4.0 mi SW 4.6 mph - 0.00 in Snow Light Snow
6:25 AM 27.0 °F 19.5 °F 23.0 °F 85% 29.81 in 3.0 mi SSW 6.9 mph - 0.00 in Snow Light Snow
6:34 AM 27.0 °F 19.5 °F 23.0 °F 85% 29.81 in 2.5 mi SSW 6.9 mph - 0.00 in Snow Light Snow
6:56 AM 27.0 °F 20.5 °F 24.1 °F 89% 29.86 in 2.0 mi SSW 5.8 mph - 0.00 in Snow Light Snow
7:05 AM 26.1 °F 19.4 °F 24.1 °F 92% 29.80 in 3.0 mi SSW 5.8 mph - 0.00 in Snow Light Snow
7:22 AM 26.1 °F 20.5 °F 24.1 °F 92% 29.80 in 2.5 mi SSW 4.6 mph - 0.00 in Snow Light Snow
7:56 AM 27.0 °F 21.6 °F 23.0 °F 85% 29.85 in 2.0 mi South 4.6 mph - 0.00 in Snow Light Snow
8:03 AM 27.0 °F 21.6 °F 23.0 °F 85% 29.79 in 6.0 mi SSW 4.6 mph - 0.00 in Snow Light Snow
8:56 AM 28.0 °F 22.8 °F 23.0 °F 81% 29.84 in 10.0 mi SSW 4.6 mph - 0.00 in   Overcast
9:56 AM 30.0 °F 25.2 °F 24.1 °F 79% 29.85 in 10.0 mi SSW 4.6 mph - N/A   Overcast
10:56 AM 33.1 °F 26.1 °F 24.1 °F 70% 29.84 in 10.0 mi SW 8.1 mph - N/A   Overcast
11:56 AM 35.1 °F 28.6 °F 21.9 °F 59% 29.83 in 10.0 mi WSW 8.1 mph - N/A   Overcast
12:56 PM 37.0 °F 31.6 °F 19.9 °F 50% 29.80 in 10.0 mi West 6.9 mph - N/A   Mostly Cloudy
1:56 PM 37.9 °F 32.1 °F 19.9 °F 48% 29.78 in 10.0 mi West 8.1 mph - N/A   Overcast
2:56 PM 39.9 °F 35.8 °F 23.0 °F 51% 29.76 in 10.0 mi NW 5.8 mph - N/A   Mostly Cloudy
3:56 PM 39.9 °F 36.7 °F 21.0 °F 47% 29.75 in 10.0 mi SSW 4.6 mph - N/A   Overcast
4:56 PM 39.9 °F 36.7 °F 21.9 °F 49% 29.74 in 10.0 mi SW 4.6 mph - N/A   Mostly Cloudy
5:56 PM 39.0 °F 35.7 °F 23.0 °F 53% 29.74 in 10.0 mi South 4.6 mph - N/A   Clear
6:56 PM 37.9 °F 35.5 °F 24.1 °F 57% 29.75 in 10.0 mi SSE 3.5 mph - N/A   Clear
7:56 PM 36.0 °F 33.3 °F 26.1 °F 67% 29.74 in 10.0 mi ESE 3.5 mph - N/A   Mostly Cloudy
8:56 PM 35.1 °F - 27.0 °F 72% 29.74 in 10.0 mi Calm Calm - N/A   Overcast
9:56 PM 36.0 °F 29.6 °F 27.0 °F 70% 29.73 in 10.0 mi SSE 8.1 mph - N/A   Overcast
10:56 PM 36.0 °F 30.3 °F 26.1 °F 67% 29.70 in 10.0 mi SSE 6.9 mph - N/A   Overcast
11:56 PM 36.0 °F 30.3 °F 27.0 °F 70% 29.67 in 10.0 mi South 6.9 mph - N/A   Overcast